| time (UTC) | temp F | wind direction | speed MPH | gust MPH | rain 1hr in | rain 24hr in | rain mn in | humidity % | barometer mb |
| 20260508012908 | 52 | 356 | 0.0 | 0.0 | 0.00 | 0.33 | 0.29 | 63 | 1008.4 |
| 20260508012407 | 53 | 356 | 0.0 | 0.0 | 0.00 | 0.33 | 0.29 | 60 | 1008.3 |
| 20260508011909 | 53 | 356 | 0.0 | 0.0 | 0.00 | 0.33 | 0.29 | 60 | 1008.3 |
| 20260508011410 | 53 | 356 | 0.0 | 0.0 | 0.00 | 0.33 | 0.29 | 59 | 1008.4 |
| 20260508010912 | 54 | 356 | 0.0 | 0.0 | 0.00 | 0.33 | 0.29 | 59 | 1008.4 |
| 20260508010907 | 54 | 356 | 0.0 | 0.0 | 0.00 | 0.33 | 0.29 | 62 | 1008.3 |
| 20260508005907 | 54 | 356 | 0.0 | 0.0 | 0.00 | 0.33 | 0.29 | 58 | 1008.4 |
| 20260508005409 | 55 | 356 | 0.0 | 0.0 | 0.00 | 0.33 | 0.29 | 55 | 1008.3 |
| 20260508004907 | 55 | 356 | 0.0 | 0.0 | 0.00 | 0.33 | 0.29 | 54 | 1008.3 |
| 20260508004639 | 55 | 356 | 0.0 | 0.0 | 0.00 | 0.33 | 0.29 | 53 | 1008.2 |
| 20260508003908 | 56 | 356 | 0.0 | 0.0 | 0.00 | 0.33 | 0.29 | 53 | 1008.2 |
| 20260508003408 | 56 | 356 | 0.0 | 0.0 | 0.00 | 0.33 | 0.29 | 54 | 1008.1 |
| 20260508002903 | 56 | 356 | 0.0 | 0.0 | 0.00 | 0.33 | 0.29 | 53 | 1008.0 |
| 20260508002357 | 56 | 356 | 0.0 | 0.0 | 0.00 | 0.33 | 0.29 | 48 | 1008.1 |
| 20260508002352 | 57 | 356 | 0.0 | 0.0 | 0.00 | 0.33 | 0.29 | 48 | 1008.0 |
| 20260508001617 | 58 | 356 | 0.0 | 0.0 | 0.00 | 0.33 | 0.29 | 50 | 1007.9 |
| 20260508000838 | 58 | 356 | 0.0 | 0.0 | 0.00 | 0.33 | 0.29 | 45 | 1007.9 |
| 20260508000602 | 58 | 356 | 0.0 | 0.0 | 0.00 | 0.33 | 0.29 | 44 | 1007.8 |
| 20260507235826 | 59 | 356 | 0.0 | 0.0 | 0.00 | 0.33 | 0.29 | 44 | 1007.7 |
| 20260507235320 | 59 | 356 | 0.0 | 0.0 | 0.00 | 0.33 | 0.29 | 44 | 1007.7 |
| 20260507234814 | 60 | 356 | 0.0 | 0.0 | 0.00 | 0.33 | 0.29 | 44 | 1007.6 |
| 20260507234538 | 60 | 356 | 0.0 | 0.0 | 0.00 | 0.33 | 0.29 | 47 | 1007.7 |
| 20260507233759 | 60 | 356 | 0.0 | 0.0 | 0.00 | 0.33 | 0.29 | 46 | 1007.6 |
| 20260507232747 | 61 | 356 | 0.0 | 0.0 | 0.00 | 0.33 | 0.29 | 47 | 1007.6 |
| 20260507232241 | 61 | 355 | 0.0 | 0.0 | 0.00 | 0.33 | 0.29 | 46 | 1007.7 |
| 20260507231736 | 62 | 356 | 0.0 | 2.0 | 0.00 | 0.33 | 0.29 | 48 | 1007.5 |
| 20260507231501 | 62 | 356 | 0.0 | 2.0 | 0.00 | 0.33 | 0.29 | 40 | 1007.4 |
| 20260507230955 | 62 | 356 | 0.0 | 2.0 | 0.00 | 0.33 | 0.29 | 38 | 1007.4 |
| 20260507230218 | 62 | 356 | 0.0 | 2.0 | 0.00 | 0.33 | 0.29 | 36 | 1007.4 |
| 20260507225712 | 62 | 356 | 1.0 | 3.0 | 0.00 | 0.33 | 0.29 | 36 | 1007.4 |
| 20260507225205 | 62 | 354 | 1.0 | 3.0 | 0.00 | 0.33 | 0.29 | 36 | 1007.4 |
| 20260507224659 | 62 | 332 | 0.0 | 1.0 | 0.00 | 0.33 | 0.29 | 37 | 1007.4 |
| 20260507224155 | 63 | 26 | 0.0 | 2.0 | 0.00 | 0.33 | 0.29 | 36 | 1007.3 |
| 20260507223918 | 63 | 26 | 0.0 | 2.0 | 0.00 | 0.33 | 0.29 | 37 | 1007.3 |
| 20260507223143 | 63 | 26 | 0.0 | 2.0 | 0.00 | 0.33 | 0.29 | 34 | 1007.4 |
| 20260507222636 | 63 | 26 | 0.0 | 2.0 | 0.00 | 0.33 | 0.29 | 36 | 1007.5 |
| 20260507222403 | 63 | 7 | 0.0 | 2.0 | 0.00 | 0.33 | 0.29 | 36 | 1007.6 |
| 20260507221623 | 63 | 353 | 0.0 | 2.0 | 0.00 | 0.33 | 0.29 | 35 | 1007.5 |
| 20260507221119 | 63 | 353 | 0.0 | 2.0 | 0.00 | 0.33 | 0.29 | 35 | 1007.6 |
| 20260507220612 | 63 | 335 | 1.0 | 2.0 | 0.00 | 0.33 | 0.29 | 34 | 1007.5 |
| 20260507220105 | 63 | 358 | 0.0 | 2.0 | 0.00 | 0.33 | 0.29 | 35 | 1007.6 |
| 20260507215600 | 63 | 26 | 0.0 | 1.0 | 0.00 | 0.33 | 0.29 | 36 | 1007.6 |
| 20260507215053 | 63 | 26 | 0.0 | 2.0 | 0.00 | 0.33 | 0.29 | 37 | 1007.6 |
| 20260507214548 | 63 | 2 | 0.0 | 2.0 | 0.00 | 0.33 | 0.29 | 35 | 1007.5 |
| 20260507214043 | 63 | 2 | 0.0 | 1.0 | 0.00 | 0.33 | 0.29 | 35 | 1007.7 |
| 20260507213536 | 63 | 305 | 0.0 | 1.0 | 0.00 | 0.33 | 0.29 | 38 | 1007.6 |
| 20260507213029 | 64 | 305 | 0.0 | 1.0 | 0.00 | 0.33 | 0.29 | 40 | 1007.7 |
| 20260507212524 | 64 | 305 | 0.0 | 2.0 | 0.00 | 0.33 | 0.29 | 34 | 1007.5 |
| 20260507212017 | 65 | 305 | 0.0 | 2.0 | 0.00 | 0.33 | 0.29 | 33 | 1007.5 |
| 20260507211512 | 65 | 206 | 1.0 | 8.0 | 0.00 | 0.33 | 0.29 | 33 | 1007.5 |
| 20260507211005 | 65 | 206 | 1.0 | 8.0 | 0.00 | 0.33 | 0.29 | 38 | 1007.5 |
| 20260507210501 | 65 | 227 | 2.0 | 7.0 | 0.00 | 0.33 | 0.29 | 38 | 1007.4 |
| 20260507210456 | 65 | 253 | 2.0 | 8.0 | 0.00 | 0.33 | 0.29 | 36 | 1007.4 |
| 20260507205448 | 66 | 273 | 2.0 | 8.0 | 0.00 | 0.33 | 0.29 | 34 | 1007.3 |
| 20260507205212 | 66 | 200 | 2.0 | 8.0 | 0.00 | 0.33 | 0.29 | 36 | 1007.3 |
| 20260507204436 | 66 | 217 | 1.0 | 5.0 | 0.00 | 0.33 | 0.29 | 39 | 1007.2 |
| 20260507203929 | 66 | 345 | 2.0 | 9.0 | 0.00 | 0.33 | 0.29 | 32 | 1007.3 |
| 20260507203424 | 66 | 273 | 3.0 | 9.0 | 0.00 | 0.33 | 0.29 | 37 | 1007.2 |
| 20260507203419 | 66 | 229 | 3.0 | 10.0 | 0.00 | 0.33 | 0.29 | 36 | 1007.3 |
| 20260507202645 | 66 | 236 | 3.0 | 10.0 | 0.00 | 0.33 | 0.29 | 35 | 1007.4 |
| 20260507201905 | 65 | 265 | 2.0 | 13.0 | 0.00 | 0.33 | 0.29 | 35 | 1007.5 |
| 20260507201633 | 65 | 279 | 1.0 | 13.0 | 0.00 | 0.33 | 0.29 | 39 | 1007.5 |
| 20260507201126 | 65 | 257 | 2.0 | 6.0 | 0.00 | 0.33 | 0.29 | 33 | 1007.6 |
| 20260507200348 | 65 | 240 | 2.0 | 6.0 | 0.00 | 0.33 | 0.29 | 35 | 1007.5 |
| 20260507195842 | 65 | 46 | 2.0 | 5.0 | 0.00 | 0.33 | 0.29 | 32 | 1007.6 |
| 20260507195336 | 65 | 299 | 1.0 | 5.0 | 0.00 | 0.33 | 0.29 | 32 | 1007.5 |
| 20260507194831 | 65 | 258 | 1.0 | 3.0 | 0.00 | 0.33 | 0.29 | 40 | 1007.6 |
| 20260507194323 | 65 | 14 | 2.0 | 7.0 | 0.00 | 0.33 | 0.29 | 36 | 1007.6 |
| 20260507193817 | 65 | 265 | 3.0 | 9.0 | 0.00 | 0.33 | 0.29 | 38 | 1007.7 |
| 20260507193312 | 65 | 211 | 4.0 | 9.0 | 0.00 | 0.33 | 0.29 | 42 | 1007.7 |
| 20260507192807 | 64 | 182 | 5.0 | 11.0 | 0.00 | 0.33 | 0.29 | 40 | 1007.8 |
| 20260507192259 | 65 | 233 | 4.0 | 11.0 | 0.00 | 0.33 | 0.29 | 36 | 1007.7 |
| 20260507191800 | 65 | 254 | 2.0 | 10.0 | 0.00 | 0.33 | 0.29 | 36 | 1007.8 |
| 20260507191303 | 65 | 2 | 1.0 | 3.0 | 0.00 | 0.33 | 0.29 | 37 | 1007.9 |
| 20260507191258 | 65 | 323 | 1.0 | 3.0 | 0.00 | 0.33 | 0.29 | 35 | 1007.9 |
| 20260507190258 | 64 | 306 | 1.0 | 4.0 | 0.00 | 0.33 | 0.29 | 35 | 1007.8 |
| 20260507190028 | 64 | 350 | 1.0 | 4.0 | 0.00 | 0.33 | 0.29 | 38 | 1007.9 |
| 20260507185912 | 64 | 8 | 1.0 | 4.0 | 0.00 | 0.33 | 0.29 | 36 | 1008.0 |
| 20260507184751 | 64 | 216 | 1.0 | 4.0 | 0.00 | 0.33 | 0.29 | 49 | 1008.1 |
| 20260507184524 | 64 | 341 | 1.0 | 7.0 | 0.00 | 0.33 | 0.29 | 38 | 1008.1 |
| 20260507183752 | 65 | 263 | 1.0 | 7.0 | 0.00 | 0.33 | 0.29 | 43 | 1008.3 |
| 20260507183251 | 64 | 344 | 1.0 | 4.0 | 0.00 | 0.33 | 0.29 | 45 | 1008.3 |
| 20260507182753 | 65 | 18 | 1.0 | 5.0 | 0.00 | 0.33 | 0.29 | 40 | 1008.4 |
| 20260507182251 | 64 | 235 | 2.0 | 7.0 | 0.00 | 0.33 | 0.29 | 40 | 1008.4 |
| 20260507181752 | 64 | 292 | 3.0 | 11.0 | 0.00 | 0.33 | 0.29 | 40 | 1008.5 |
| 20260507181251 | 64 | 263 | 2.0 | 11.0 | 0.00 | 0.33 | 0.29 | 41 | 1008.5 |
| 20260507180751 | 64 | 337 | 1.0 | 5.0 | 0.00 | 0.33 | 0.29 | 40 | 1008.7 |
| 20260507180247 | 64 | 355 | 1.0 | 5.0 | 0.00 | 0.33 | 0.29 | 40 | 1008.6 |
| 20260507175747 | 64 | 12 | 2.0 | 9.0 | 0.00 | 0.33 | 0.29 | 45 | 1008.7 |
| 20260507175248 | 64 | 246 | 3.0 | 11.0 | 0.00 | 0.33 | 0.29 | 47 | 1008.7 |
| 20260507174751 | 63 | 13 | 2.0 | 7.0 | 0.00 | 0.33 | 0.29 | 42 | 1009.0 |
| 20260507174746 | 63 | 145 | 3.0 | 11.0 | 0.00 | 0.33 | 0.29 | 43 | 1008.9 |
| 20260507173748 | 64 | 89 | 1.0 | 7.0 | 0.00 | 0.33 | 0.29 | 45 | 1009.3 |
| 20260507173247 | 63 | 268 | 2.0 | 7.0 | 0.00 | 0.33 | 0.29 | 42 | 1009.3 |
| 20260507172747 | 63 | 196 | 3.0 | 11.0 | 0.00 | 0.33 | 0.29 | 43 | 1009.3 |
| 20260507172247 | 63 | 240 | 3.0 | 11.0 | 0.00 | 0.33 | 0.29 | 47 | 1009.6 |
| 20260507171747 | 63 | 318 | 2.0 | 12.0 | 0.00 | 0.33 | 0.29 | 44 | 1009.6 |
| 20260507171519 | 62 | 221 | 2.0 | 12.0 | 0.00 | 0.33 | 0.29 | 48 | 1009.6 |
| 20260507170748 | 62 | 252 | 3.0 | 10.0 | 0.00 | 0.33 | 0.29 | 42 | 1009.7 |
| 20260507170247 | 62 | 268 | 2.0 | 11.0 | 0.00 | 0.34 | 0.29 | 47 | 1009.8 |
| 20260507170018 | 61 | 240 | 2.0 | 11.0 | 0.00 | 0.34 | 0.29 | 46 | 1009.9 |
| 20260507165246 | 61 | 347 | 1.0 | 5.0 | 0.00 | 0.34 | 0.29 | 43 | 1009.9 |
| 20260507164747 | 61 | 339 | 2.0 | 5.0 | 0.00 | 0.34 | 0.29 | 43 | 1010.0 |
| 20260507164245 | 61 | 12 | 1.0 | 7.0 | 0.00 | 0.34 | 0.29 | 43 | 1010.0 |
| 20260507163744 | 62 | 206 | 1.0 | 7.0 | 0.00 | 0.34 | 0.29 | 48 | 1010.1 |
| 20260507163238 | 61 | 282 | 2.0 | 10.0 | 0.00 | 0.35 | 0.29 | 44 | 1010.1 |
| 20260507162732 | 61 | 295 | 3.0 | 10.0 | 0.00 | 0.35 | 0.29 | 45 | 1010.1 |
| 20260507162228 | 61 | 243 | 3.0 | 9.0 | 0.00 | 0.36 | 0.29 | 48 | 1010.3 |
| 20260507161951 | 60 | 227 | 4.0 | 10.0 | 0.00 | 0.36 | 0.29 | 53 | 1010.3 |
| 20260507161214 | 60 | 252 | 3.0 | 10.0 | 0.00 | 0.36 | 0.29 | 52 | 1010.4 |
| 20260507160709 | 60 | 354 | 1.0 | 6.0 | 0.00 | 0.37 | 0.29 | 56 | 1010.5 |
| 20260507160202 | 60 | 229 | 2.0 | 6.0 | 0.00 | 0.37 | 0.29 | 57 | 1010.6 |
| 20260507155657 | 60 | 200 | 3.0 | 13.0 | 0.00 | 0.38 | 0.29 | 50 | 1010.6 |
| 20260507155151 | 60 | 209 | 3.0 | 13.0 | 0.00 | 0.38 | 0.29 | 59 | 1010.5 |
| 20260507154916 | 59 | 342 | 3.0 | 11.0 | 0.00 | 0.39 | 0.29 | 57 | 1010.7 |
| 20260507154138 | 59 | 148 | 1.0 | 11.0 | 0.00 | 0.39 | 0.29 | 58 | 1010.8 |
| 20260507153634 | 59 | 94 | 1.0 | 6.0 | 0.00 | 0.40 | 0.29 | 58 | 1010.9 |
| 20260507153357 | 58 | 301 | 2.0 | 10.0 | 0.00 | 0.41 | 0.29 | 68 | 1010.8 |
| 20260507152621 | 57 | 269 | 2.0 | 10.0 | 0.00 | 0.41 | 0.29 | 67 | 1011.0 |
| 20260507152345 | 57 | 266 | 2.0 | 9.0 | 0.00 | 0.41 | 0.29 | 64 | 1011.1 |
| 20260507151608 | 56 | 302 | 1.0 | 5.0 | 0.00 | 0.41 | 0.29 | 68 | 1011.1 |
| 20260507151100 | 56 | 235 | 1.0 | 2.0 | 0.00 | 0.41 | 0.29 | 69 | 1011.1 |
| 20260507150826 | 55 | 331 | 1.0 | 4.0 | 0.00 | 0.41 | 0.29 | 68 | 1011.1 |
| 20260507150049 | 55 | 269 | 1.0 | 5.0 | 0.00 | 0.41 | 0.29 | 68 | 1011.2 |
| 20260507145543 | 55 | 138 | 1.0 | 5.0 | 0.00 | 0.41 | 0.29 | 73 | 1011.2 |
| 20260507145036 | 54 | 243 | 1.0 | 4.0 | 0.00 | 0.41 | 0.29 | 74 | 1011.3 |
| 20260507144803 | 53 | 275 | 1.0 | 5.0 | 0.00 | 0.41 | 0.29 | 74 | 1011.5 |
| 20260507144257 | 53 | 318 | 0.0 | 5.0 | 0.00 | 0.41 | 0.29 | 78 | 1011.5 |
| 20260507143750 | 52 | 325 | 1.0 | 7.0 | 0.00 | 0.41 | 0.29 | 75 | 1011.5 |
| 20260507143243 | 52 | 229 | 1.0 | 7.0 | 0.00 | 0.41 | 0.29 | 75 | 1011.6 |
| 20260507142508 | 52 | 248 | 2.0 | 7.0 | 0.00 | 0.41 | 0.29 | 77 | 1011.6 |
| 20260507142001 | 52 | 242 | 2.0 | 7.0 | 0.00 | 0.41 | 0.29 | 79 | 1011.6 |
| 20260507141455 | 52 | 236 | 0.0 | 3.0 | 0.00 | 0.41 | 0.29 | 82 | 1011.5 |
| 20260507140948 | 51 | 269 | 0.0 | 4.0 | 0.00 | 0.41 | 0.29 | 80 | 1011.6 |
| 20260507140444 | 51 | 298 | 1.0 | 6.0 | 0.00 | 0.41 | 0.29 | 82 | 1011.7 |
| 20260507140208 | 51 | 239 | 1.0 | 6.0 | 0.00 | 0.41 | 0.29 | 84 | 1011.5 |
| 20260507135431 | 51 | 236 | 2.0 | 7.0 | 0.00 | 0.41 | 0.29 | 84 | 1011.6 |
| 20260507134927 | 50 | 82 | 1.0 | 7.0 | 0.00 | 0.41 | 0.29 | 86 | 1011.6 |
| 20260507134922 | 50 | 317 | 1.0 | 10.0 | 0.00 | 0.41 | 0.29 | 87 | 1011.6 |
| 20260507133912 | 50 | 227 | 1.0 | 10.0 | 0.00 | 0.41 | 0.29 | 87 | 1011.6 |
| 20260507133407 | 50 | 202 | 0.0 | 1.0 | 0.00 | 0.41 | 0.29 | 90 | 1011.6 |
| 20260507132901 | 49 | 335 | 0.0 | 3.0 | 0.00 | 0.41 | 0.29 | 90 | 1011.5 |
| 20260507132355 | 49 | 319 | 1.0 | 5.0 | 0.00 | 0.41 | 0.29 | 91 | 1011.5 |
| 20260507132121 | 49 | 213 | 1.0 | 6.0 | 0.00 | 0.41 | 0.29 | 92 | 1011.5 |
| 20260507131342 | 49 | 229 | 1.0 | 6.0 | 0.00 | 0.41 | 0.29 | 92 | 1011.5 |
| 20260507131108 | 49 | 209 | 0.0 | 3.0 | 0.00 | 0.41 | 0.29 | 93 | 1011.4 |
| 20260507130330 | 48 | 236 | 1.0 | 7.0 | 0.00 | 0.41 | 0.29 | 93 | 1011.5 |
| 20260507125826 | 48 | 269 | 1.0 | 7.0 | 0.00 | 0.41 | 0.29 | 93 | 1011.6 |
| 20260507125320 | 48 | 249 | 1.0 | 6.0 | 0.00 | 0.41 | 0.29 | 94 | 1011.7 |
| 20260507124812 | 48 | 252 | 0.0 | 5.0 | 0.00 | 0.41 | 0.29 | 94 | 1011.6 |
| 20260507124307 | 48 | 232 | 0.0 | 2.0 | 0.00 | 0.41 | 0.29 | 94 | 1011.6 |
| 20260507123801 | 48 | 224 | 0.0 | 4.0 | 0.00 | 0.41 | 0.29 | 94 | 1011.7 |
| 20260507123255 | 48 | 306 | 0.0 | 4.0 | 0.00 | 0.41 | 0.29 | 94 | 1011.6 |
| 20260507122749 | 48 | 237 | 0.0 | 4.0 | 0.00 | 0.41 | 0.29 | 94 | 1011.6 |
| 20260507122244 | 48 | 240 | 0.0 | 1.0 | 0.00 | 0.41 | 0.29 | 94 | 1011.5 |
| 20260507121737 | 48 | 240 | 0.0 | 2.0 | 0.00 | 0.41 | 0.29 | 94 | 1011.6 |
| 20260507121231 | 48 | 240 | 0.0 | 2.0 | 0.00 | 0.41 | 0.29 | 94 | 1011.6 |
| 20260507120955 | 48 | 233 | 0.0 | 2.0 | 0.00 | 0.41 | 0.29 | 94 | 1011.6 |
| 20260507120218 | 48 | 233 | 0.0 | 1.0 | 0.00 | 0.41 | 0.29 | 94 | 1011.7 |
| 20260507115714 | 48 | 233 | 0.0 | 4.0 | 0.00 | 0.41 | 0.29 | 94 | 1011.7 |
| 20260507115214 | 48 | 219 | 1.0 | 4.0 | 0.00 | 0.41 | 0.29 | 94 | 1011.6 |
| 20260507114713 | 48 | 195 | 1.0 | 5.0 | 0.00 | 0.41 | 0.29 | 94 | 1011.5 |
| 20260507114212 | 48 | 225 | 1.0 | 5.0 | 0.00 | 0.41 | 0.29 | 94 | 1011.4 |
| 20260507113940 | 48 | 233 | 1.0 | 5.0 | 0.00 | 0.41 | 0.29 | 95 | 1011.5 |
| 20260507113439 | 48 | 227 | 1.0 | 5.0 | 0.00 | 0.41 | 0.29 | 95 | 1011.5 |
| 20260507112710 | 48 | 228 | 1.0 | 4.0 | 0.00 | 0.41 | 0.29 | 94 | 1011.3 |
| 20260507112209 | 48 | 235 | 1.0 | 3.0 | 0.00 | 0.41 | 0.29 | 94 | 1011.3 |
| 20260507111709 | 48 | 222 | 1.0 | 3.0 | 0.00 | 0.41 | 0.29 | 94 | 1011.2 |
| 20260507111208 | 48 | 215 | 1.0 | 3.0 | 0.00 | 0.41 | 0.29 | 95 | 1011.2 |
| 20260507110710 | 48 | 220 | 0.0 | 3.0 | 0.00 | 0.41 | 0.29 | 94 | 1011.0 |
| 20260507110209 | 48 | 244 | 1.0 | 3.0 | 0.00 | 0.41 | 0.29 | 94 | 1010.8 |
| 20260507105706 | 48 | 231 | 0.0 | 3.0 | 0.00 | 0.41 | 0.29 | 94 | 1010.9 |
| 20260507105207 | 48 | 239 | 0.0 | 3.0 | 0.00 | 0.41 | 0.29 | 94 | 1010.8 |
| 20260507104707 | 48 | 241 | 0.0 | 2.0 | 0.00 | 0.41 | 0.29 | 94 | 1010.9 |
| 20260507104206 | 48 | 226 | 0.0 | 2.0 | 0.00 | 0.41 | 0.29 | 94 | 1010.9 |
| 20260507103707 | 47 | 225 | 0.0 | 1.0 | 0.00 | 0.41 | 0.29 | 94 | 1010.8 |
| 20260507103202 | 47 | 225 | 0.0 | 1.0 | 0.00 | 0.41 | 0.29 | 94 | 1010.7 |
| 20260507102933 | 47 | 225 | 0.0 | 0.0 | 0.00 | 0.41 | 0.29 | 93 | 1010.7 |
| 20260507102432 | 47 | 225 | 0.0 | 0.0 | 0.00 | 0.41 | 0.29 | 94 | 1010.5 |
| 20260507101701 | 47 | 225 | 0.0 | 0.0 | 0.00 | 0.41 | 0.29 | 93 | 1010.4 |
| 20260507101203 | 47 | 225 | 0.0 | 0.0 | 0.00 | 0.41 | 0.29 | 93 | 1010.3 |
| 20260507100704 | 47 | 225 | 0.0 | 0.0 | 0.00 | 0.41 | 0.29 | 93 | 1010.1 |
| 20260507100203 | 47 | 225 | 0.0 | 0.0 | 0.00 | 0.41 | 0.29 | 93 | 1010.1 |
| 20260507095701 | 47 | 225 | 0.0 | 0.0 | 0.00 | 0.41 | 0.29 | 93 | 1010.1 |
| 20260507095433 | 47 | 225 | 0.0 | 0.0 | 0.00 | 0.41 | 0.29 | 93 | 1010.1 |
| 20260507094701 | 47 | 225 | 0.0 | 0.0 | 0.00 | 0.41 | 0.29 | 93 | 1010.1 |
| 20260507094433 | 47 | 225 | 0.0 | 0.0 | 0.00 | 0.41 | 0.29 | 93 | 1010.1 |
| 20260507093701 | 47 | 225 | 0.0 | 0.0 | 0.00 | 0.41 | 0.29 | 93 | 1010.0 |
| 20260507093203 | 47 | 225 | 0.0 | 1.0 | 0.01 | 0.41 | 0.29 | 93 | 1010.1 |
| 20260507092701 | 47 | 225 | 0.0 | 1.0 | 0.01 | 0.41 | 0.29 | 93 | 1010.1 |
| 20260507092202 | 47 | 225 | 0.0 | 0.0 | 0.02 | 0.41 | 0.29 | 93 | 1009.9 |
| 20260507091703 | 47 | 225 | 0.0 | 3.0 | 0.02 | 0.41 | 0.29 | 93 | 1009.9 |
| 20260507091203 | 47 | 225 | 0.0 | 3.0 | 0.02 | 0.41 | 0.29 | 93 | 1009.9 |
| 20260507090701 | 47 | 234 | 0.0 | 0.0 | 0.02 | 0.41 | 0.29 | 93 | 1009.8 |
| 20260507090155 | 47 | 234 | 0.0 | 0.0 | 0.03 | 0.41 | 0.29 | 93 | 1009.7 |
| 20260507085647 | 47 | 234 | 0.0 | 0.0 | 0.03 | 0.41 | 0.29 | 93 | 1009.8 |
| 20260507085412 | 47 | 138 | 0.0 | 0.0 | 0.04 | 0.41 | 0.29 | 93 | 1009.8 |
| 20260507084636 | 47 | 138 | 0.0 | 0.0 | 0.04 | 0.41 | 0.29 | 92 | 1009.9 |
| 20260507084129 | 47 | 138 | 0.0 | 0.0 | 0.05 | 0.41 | 0.29 | 92 | 1009.9 |
| 20260507083625 | 47 | 82 | 0.0 | 0.0 | 0.06 | 0.41 | 0.29 | 92 | 1009.5 |
| 20260507083117 | 47 | 82 | 0.0 | 0.0 | 0.06 | 0.40 | 0.28 | 92 | 1009.7 |
| 20260507082612 | 47 | 82 | 0.0 | 0.0 | 0.07 | 0.40 | 0.28 | 92 | 1009.7 |
| 20260507082106 | 47 | 96 | 0.0 | 0.0 | 0.06 | 0.39 | 0.27 | 92 | 1009.7 |
| 20260507081600 | 48 | 96 | 0.0 | 0.0 | 0.06 | 0.39 | 0.27 | 92 | 1009.6 |
| 20260507081054 | 48 | 96 | 0.0 | 0.0 | 0.06 | 0.39 | 0.27 | 92 | 1009.8 |
| 20260507080547 | 48 | 96 | 0.0 | 0.0 | 0.05 | 0.38 | 0.26 | 92 | 1010.0 |
| 20260507080043 | 48 | 96 | 0.0 | 0.0 | 0.05 | 0.38 | 0.26 | 92 | 1009.9 |
| 20260507075536 | 48 | 94 | 0.0 | 3.0 | 0.04 | 0.37 | 0.25 | 92 | 1010.3 |
| 20260507075030 | 48 | 254 | 0.0 | 4.0 | 0.05 | 0.37 | 0.25 | 92 | 1010.1 |
| 20260507074754 | 48 | 223 | 0.0 | 4.0 | 0.06 | 0.36 | 0.24 | 92 | 1010.3 |
| 20260507074248 | 48 | 250 | 0.0 | 1.0 | 0.07 | 0.36 | 0.24 | 92 | 1010.3 |
| 20260507073511 | 48 | 250 | 0.0 | 3.0 | 0.07 | 0.35 | 0.23 | 92 | 1010.1 |
| 20260507073005 | 48 | 250 | 1.0 | 6.0 | 0.08 | 0.34 | 0.22 | 92 | 1010.6 |
| 20260507072500 | 48 | 286 | 1.0 | 6.0 | 0.08 | 0.33 | 0.21 | 92 | 1010.4 |
| 20260507072225 | 48 | 321 | 0.0 | 1.0 | 0.09 | 0.33 | 0.21 | 92 | 1010.0 |
| 20260507071447 | 49 | 321 | 0.0 | 3.0 | 0.09 | 0.33 | 0.21 | 92 | 1009.8 |
| 20260507070942 | 49 | 319 | 0.0 | 5.0 | 0.10 | 0.33 | 0.21 | 92 | 1010.3 |
| 20260507070436 | 49 | 202 | 0.0 | 5.0 | 0.11 | 0.33 | 0.21 | 91 | 1010.3 |
| 20260507070201 | 49 | 333 | 0.0 | 3.0 | 0.12 | 0.33 | 0.21 | 92 | 1009.9 |
| 20260507065424 | 49 | 273 | 1.0 | 4.0 | 0.12 | 0.33 | 0.21 | 92 | 1010.1 |
| 20260507064917 | 49 | 280 | 1.0 | 4.0 | 0.11 | 0.32 | 0.20 | 92 | 1009.9 |
| 20260507064412 | 49 | 317 | 1.0 | 6.0 | 0.09 | 0.30 | 0.18 | 92 | 1010.0 |
| 20260507063907 | 49 | 287 | 0.0 | 6.0 | 0.10 | 0.29 | 0.17 | 91 | 1010.0 |
| 20260507063400 | 49 | 229 | 0.0 | 3.0 | 0.12 | 0.28 | 0.16 | 91 | 1009.9 |
| 20260507063126 | 49 | 240 | 0.0 | 5.0 | 0.10 | 0.25 | 0.14 | 91 | 1009.9 |
| 20260507062348 | 49 | 265 | 1.0 | 5.0 | 0.12 | 0.25 | 0.13 | 90 | 1010.4 |
| 20260507061843 | 50 | 250 | 0.0 | 3.0 | 0.12 | 0.24 | 0.12 | 90 | 1009.9 |
| 20260507061336 | 50 | 256 | 0.0 | 3.0 | 0.12 | 0.24 | 0.12 | 89 | 1009.8 |
| 20260507060830 | 50 | 324 | 1.0 | 4.0 | 0.11 | 0.23 | 0.11 | 89 | 1009.5 |
| 20260507060325 | 50 | 204 | 0.0 | 4.0 | 0.10 | 0.22 | 0.10 | 88 | 1010.3 |
| 20260507060320 | 51 | 264 | 0.0 | 1.0 | 0.09 | 0.21 | 0.09 | 88 | 1009.9 |
| 20260507055311 | 51 | 264 | 1.0 | 4.0 | 0.09 | 0.21 | 0.09 | 88 | 1009.6 |
| 20260507054806 | 51 | 264 | 1.0 | 5.0 | 0.09 | 0.21 | 0.09 | 88 | 1009.6 |
| 20260507054301 | 51 | 221 | 1.0 | 8.0 | 0.08 | 0.20 | 0.09 | 87 | 1009.7 |
| 20260507053755 | 51 | 236 | 2.0 | 8.0 | 0.04 | 0.16 | 0.05 | 87 | 1009.6 |
| 20260507053249 | 52 | 261 | 2.0 | 9.0 | 0.04 | 0.16 | 0.04 | 86 | 1009.7 |
| 20260507052743 | 52 | 297 | 2.0 | 9.0 | 0.01 | 0.13 | 0.01 | 86 | 1009.4 |
| 20260507052236 | 53 | 243 | 1.0 | 4.0 | 0.01 | 0.13 | 0.01 | 85 | 1009.3 |
| 20260507051729 | 53 | 282 | 1.0 | 6.0 | 0.00 | 0.12 | 0.00 | 84 | 1009.0 |
| 20260507051225 | 53 | 67 | 1.0 | 6.0 | 0.00 | 0.12 | 0.00 | 84 | 1008.6 |
| 20260507050719 | 54 | 238 | 0.0 | 3.0 | 0.00 | 0.12 | 0.00 | 84 | 1008.9 |
| 20260507050211 | 54 | 340 | 0.0 | 3.0 | 0.00 | 0.12 | 0.00 | 85 | 1009.1 |
| 20260507045705 | 54 | 153 | 0.0 | 1.0 | 0.00 | 0.12 | 0.00 | 85 | 1009.0 |
| 20260507045200 | 54 | 153 | 0.0 | 2.0 | 0.00 | 0.12 | 0.00 | 85 | 1008.7 |
| 20260507044653 | 54 | 153 | 0.0 | 2.0 | 0.00 | 0.12 | 0.00 | 84 | 1008.7 |
| 20260507044148 | 54 | 256 | 0.0 | 1.0 | 0.00 | 0.12 | 0.00 | 84 | 1008.7 |
| 20260507043643 | 54 | 256 | 0.0 | 1.0 | 0.00 | 0.12 | 0.00 | 83 | 1008.9 |
| 20260507043136 | 55 | 256 | 0.0 | 3.0 | 0.00 | 0.12 | 0.00 | 84 | 1008.7 |
| 20260507043131 | 55 | 204 | 0.0 | 3.0 | 0.00 | 0.12 | 0.00 | 84 | 1009.2 |
| 20260507042124 | 55 | 247 | 0.0 | 2.0 | 0.00 | 0.12 | 0.00 | 83 | 1009.1 |
| 20260507042119 | 55 | 247 | 0.0 | 3.0 | 0.00 | 0.12 | 0.00 | 83 | 1009.2 |
| 20260507041110 | 55 | 247 | 0.0 | 3.0 | 0.00 | 0.12 | 0.00 | 83 | 1009.2 |
| 20260507040605 | 56 | 348 | 0.0 | 2.0 | 0.00 | 0.12 | 0.00 | 83 | 1009.1 |
| 20260507040058 | 56 | 309 | 1.0 | 4.0 | 0.00 | 0.12 | 0.00 | 83 | 1009.1 |
| 20260507035553 | 56 | 277 | 1.0 | 6.0 | 0.00 | 0.12 | 0.12 | 82 | 1009.2 |
| 20260507035046 | 56 | 213 | 0.0 | 2.0 | 0.00 | 0.12 | 0.12 | 83 | 1009.0 |
| 20260507034540 | 57 | 306 | 0.0 | 2.0 | 0.00 | 0.12 | 0.12 | 83 | 1008.9 |
| 20260507034035 | 57 | 282 | 0.0 | 0.0 | 0.00 | 0.12 | 0.12 | 83 | 1009.0 |
| 20260507033528 | 58 | 317 | 0.0 | 3.0 | 0.00 | 0.12 | 0.12 | 83 | 1009.0 |
| 20260507033023 | 58 | 317 | 0.0 | 3.0 | 0.01 | 0.12 | 0.12 | 82 | 1009.1 |
| 20260507032517 | 59 | 313 | 0.0 | 2.0 | 0.01 | 0.12 | 0.12 | 82 | 1008.9 |
| 20260507032010 | 59 | 0 | 1.0 | 3.0 | 0.01 | 0.12 | 0.12 | 84 | 1008.9 |
| 20260507031505 | 60 | 342 | 1.0 | 3.0 | 0.01 | 0.12 | 0.12 | 84 | 1008.9 |
| 20260507031232 | 60 | 319 | 1.0 | 2.0 | 0.03 | 0.12 | 0.12 | 85 | 1008.7 |
| 20260507030453 | 61 | 300 | 0.0 | 2.0 | 0.04 | 0.12 | 0.12 | 86 | 1008.7 |
| 20260507025947 | 61 | 271 | 0.0 | 3.0 | 0.04 | 0.12 | 0.12 | 87 | 1008.5 |
| 20260507025440 | 62 | 296 | 1.0 | 3.0 | 0.04 | 0.12 | 0.12 | 88 | 1008.5 |
| 20260507024936 | 62 | 297 | 1.0 | 5.0 | 0.04 | 0.12 | 0.12 | 90 | 1008.4 |
| 20260507024430 | 62 | 242 | 1.0 | 5.0 | 0.04 | 0.12 | 0.12 | 89 | 1008.3 |
| 20260507023931 | 62 | 192 | 1.0 | 4.0 | 0.04 | 0.12 | 0.12 | 89 | 1008.2 |
| 20260507023432 | 63 | 238 | 1.0 | 4.0 | 0.04 | 0.12 | 0.12 | 89 | 1008.2 |
| 20260507022930 | 63 | 215 | 1.0 | 5.0 | 0.03 | 0.11 | 0.11 | 89 | 1007.9 |
| 20260507022430 | 63 | 224 | 1.0 | 5.0 | 0.03 | 0.11 | 0.11 | 88 | 1008.3 |
| 20260507021930 | 63 | 186 | 2.0 | 6.0 | 0.03 | 0.11 | 0.11 | 88 | 1008.3 |
| 20260507021703 | 63 | 206 | 2.0 | 7.0 | 0.03 | 0.11 | 0.11 | 87 | 1008.4 |
| 20260507020930 | 63 | 233 | 2.0 | 7.0 | 0.01 | 0.09 | 0.09 | 86 | 1008.2 |
| 20260507020429 | 64 | 211 | 1.0 | 5.0 | 0.00 | 0.08 | 0.08 | 85 | 1008.2 |
| 20260507020202 | 64 | 154 | 1.0 | 4.0 | 0.00 | 0.08 | 0.08 | 85 | 1008.2 |
| 20260507015429 | 64 | 178 | 1.0 | 6.0 | 0.00 | 0.08 | 0.08 | 84 | 1008.2 |
| 20260507014930 | 64 | 196 | 0.0 | 6.0 | 0.00 | 0.08 | 0.08 | 84 | 1008.3 |
| 20260507014430 | 64 | 182 | 1.0 | 5.0 | 0.00 | 0.08 | 0.08 | 84 | 1008.2 |
| 20260507013931 | 64 | 191 | 1.0 | 5.0 | 0.00 | 0.08 | 0.08 | 84 | 1008.2 |
| 20260507013429 | 64 | 175 | 1.0 | 4.0 | 0.00 | 0.08 | 0.08 | 84 | 1008.0 |